[Date Prev][Date Next][Thread Prev][Thread Next] - [Date Index][Thread Index][Author Index]

2 Line ISS Keps 4-2



ISS
1 25544U 98067A   02092.14192631  .00051099  00000-0  63621-3 0  2549
2 25544  51.6371  75.0519 0003145 349.5082 110.1533 15.59412429192172


----
Via the sarex mailing list at AMSAT.ORG courtesy of AMSAT-NA.
To unsubscribe, send "unsubscribe sarex" to Majordomo@amsat.org



AMSAT Top AMSAT Home